星链-11736 (STARLINK-11736)

导读

STARLINK-11736是美国于2025年6月10日发射的星链低轨卫星,隶属于SpaceX星链星座。星链星座旨在构建全球高速卫星互联网,为全球地面盲区、偏远区域提供高速网络接入服务。该卫星进入预定轨道后,将参与星链星座组网,拓展全球覆盖范围,提升星座整体服务容量。

Basic Information
目录编号:
64317
目录名称:
STARLINK-11736
国际标识:
2025-124A
轨道中心:
EARTH
卫星名称:
星链-11736
卫星全名:
星链-11736 (STARLINK-11736)
卫星状态:
在轨 (已飞行452 天)
发射日期:
2025-06-10 UTC
国别 :
美国 (US)
星等 :
--
Orbit Information
数据来源 国际轨道数据
星历时间: 2026-09-05T03:40:18+0800
17小时前
查看轨道信息
半长轴: 6734.547km
偏心率: 0.0002395
轨道倾角: 43.000°
近地点辐角 278.134°
升交点赤经 29.770°
平近点角 81.925°
近地点: 354.797km
远地点: 358.023km
周期: 91.669分钟
每日圈数: 15.708701
Detailed Information
固有亮度:
5
最大亮度:
2.5
卫星平台:
Starlink V1.0
覆盖范围:
全球
运营商:
太空探索技术公司
运营商所在国:
美国
制造商(研发单位):
太空探索技术公司
制造商所在国:
美国
使用方式:
暂无
Satellite Introduction
Starlink 计划是 SpaceX 推出的全球卫星互联网项目,通过发射低轨道卫星,为全球尤其是偏远地区提供高速、低延迟的互联网服务。自 2019 年起,Starlink 已部署数千颗卫星,旨在缩小全球数字鸿沟,推动互联网普及。该项目还为军事、航空等行业提供通信支持,带来广泛经济效益。
2D Orbit Map
3D Orbit Map
Orbit Altitude Analysis Chart
Orbit Inclination Analysis Chart
Orbit Comprehensive Analysis Chart
View Comprehensive Chart
Conjunction Data List
Event ID Objects TCA Miss Dist (km) Collision Risk Probability Collision Risk Index (CRI) Action
CDM_260907-180806-412906-431721
2026-09-07T
18:08:26+0000
1.581 km
极远距离
2.738827E-6 低风险 0.44